This is the latest recevied weather packets stored in our database for station/object CT2IRJ-11. If no packets are shown the sender has not sent any weather packets the latest 10 day(s).
| Time | Temp. | Humidity | Pressure | Rain* | Wind** | Luminosity | Snow |
|---|---|---|---|---|---|---|---|
| 1778065710 | 22.78° C | 47% | 1013.9 hPa | 0 mm | - | 172 W/m² | - |
| 1778065410 | 22.78° C | 48% | 1013.5 hPa | 0 mm | - | 861 W/m² | - |
| 1778065110 | 22.22° C | 50% | 1013.5 hPa | 0 mm | - | 760 W/m² | - |
| 1778064813 | 21.67° C | 46% | 1013.5 hPa | 0 mm | - | 699 W/m² | - |
| 1778064511 | 21.67° C | 50% | 1013.9 hPa | 0 mm | - | 706 W/m² | - |
| 1778064210 | 20.56° C | 55% | 1013.9 hPa | 0 mm | - | 730 W/m² | - |
| 1778063910 | 21.67° C | 54% | 1013.9 hPa | 0 mm | - | 119 W/m² | - |
| 1778063610 | 22.22° C | 51% | 1013.9 hPa | 0 mm | - | 770 W/m² | - |
| 1778063310 | 21.67° C | 53% | 1013.9 hPa | 0 mm | - | 465 W/m² | - |
| 1778063011 | 21.11° C | 54% | 1013.9 hPa | 0 mm | - | 802 W/m² | - |
| 1778062709 | 21.11° C | 55% | 1013.9 hPa | 0 mm | - | 832 W/m² | - |
| 1778062410 | 21.11° C | 56% | 1013.9 hPa | 0 mm | - | 838 W/m² | - |
| 1778062110 | 20.56° C | 58% | 1013.9 hPa | 0 mm | - | 779 W/m² | - |
| 1778061810 | 21.11° C | 56% | 1013.9 hPa | 0 mm | - | 729 W/m² | - |
| 1778061510 | 21.11° C | 57% | 1013.9 hPa | 0 mm | - | 763 W/m² | - |
| 1778061212 | 20.56° C | 58% | 1013.9 hPa | 0 mm | - | 782 W/m² | - |
| 1778060910 | 20.56° C | 59% | 1013.9 hPa | 0 mm | - | 781 W/m² | - |
| 1778060610 | 20.56° C | 60% | 1014.2 hPa | 0 mm | - | 747 W/m² | - |
| 1778060310 | 20° C | 60% | 1014.2 hPa | 0 mm | - | 712 W/m² | - |
| 1778060010 | 20° C | 61% | 1013.9 hPa | 0 mm | - | 684 W/m² | - |
| 1778059711 | 20.56° C | 61% | 1013.9 hPa | 0 mm | - | 672 W/m² | - |
| 1778059410 | 18.89° C | 63% | 1014.2 hPa | 0 mm | - | 645 W/m² | - |
| 1778059110 | 18.89° C | 64% | 1013.9 hPa | 0 mm | - | 610 W/m² | - |
| 1778058810 | 18.89° C | 65% | 1014.2 hPa | 0 mm | - | 588 W/m² | - |
| 1778058510 | 18.33° C | 67% | 1014.2 hPa | 0 mm | - | 554 W/m² | - |
* Rain latest hour (hover to see other rain measurements)
** Current wind speed in m/s (hover to see current wind gust speed)